This demonstration page uses our WeatherBlox Daily Observations layout. Learn more.

Left ArrowRight Arrow

53.62937, 11.41316

Hourly Observations for November 5, 2021

Temp ( °F °C ) Dew Point ( °F °C ) Humidity (%) Winds ( mph kmh ) Pressure ( in mb ) Visibility ( mi km ) Precip ( " mm )
12:20 am 00:20 Mostly Cloudy 46 8 45 7 93 93 WNW 10 17 29.74 1007 6 9 N/A
12:50 am 00:50 Mostly Cloudy 46 8 45 7 93 93 WNW 9 15 29.77 1008 30 48 N/A
1:20 am 01:20 Mostly Cloudy 46 8 45 7 93 93 WNW 10 17 29.77 1008 6 9 N/A
1:50 am 01:50 Mostly Cloudy 46 8 43 6 87 87 WNW 10 17 29.77 1008 30 48 N/A
2:20 am 02:20 Cloudy 45 7 43 6 93 93 WNW 9 15 29.80 1009 30 48 N/A
2:50 am 02:50 Mostly Cloudy 45 7 43 6 93 93 WNW 8 13 29.80 1009 30 48 N/A
3:20 am 03:20 Mostly Cloudy 45 7 41 5 87 87 W 8 13 29.83 1010 30 48 N/A
3:50 am 03:50 Mostly Clear 43 6 41 5 93 93 W 8 13 29.83 1010 30 48 N/A
4:20 am 04:20 Mostly Clear 43 6 41 5 93 93 W 6 9 29.83 1010 30 48 N/A
4:50 am 04:50 Mostly Clear 43 6 41 5 93 93 W 6 9 29.86 1011 30 48 N/A
5:20 am 05:20 Mostly Clear 43 6 41 5 93 93 W 7 11 29.86 1011 30 48 N/A
5:50 am 05:50 Mostly Clear 43 6 41 5 93 93 W 6 9 29.89 1012 30 48 N/A
6:20 am 06:20 Mostly Clear 43 6 41 5 93 93 W 7 11 29.89 1012 30 48 N/A
6:50 am 06:50 Mostly Clear 43 6 41 5 93 93 W 7 11 29.92 1013 30 48 N/A
7:20 am 07:20 Mostly Clear 43 6 41 5 93 93 W 7 11 29.92 1013 7 11 N/A
7:50 am 07:50 Mostly Sunny 43 6 41 5 93 93 W 5 7 29.95 1014 30 48 N/A
8:20 am 08:20 Mostly Sunny 43 6 41 5 93 93 WSW 5 7 29.95 1014 7 11 N/A
8:50 am 08:50 Mostly Sunny 45 7 41 5 87 87 WSW 6 9 29.97 1015 30 48 N/A
9:20 am 09:20 Mostly Sunny 45 7 43 6 93 93 W 5 7 29.97 1015 30 48 N/A
9:50 am 09:50 Mostly Cloudy 46 8 45 7 93 93 W 6 9 29.97 1015 30 48 N/A
10:20 am 10:20 Mostly Cloudy 48 9 45 7 87 87 W 9 15 30.00 1016 30 48 N/A
10:50 am 10:50 Mostly Cloudy 48 9 45 7 87 87 W 8 13 30.00 1016 30 48 N/A
11:20 am 11:20 Mostly Cloudy with Light Rain 50 10 46 8 88 88 W 7 11 30.00 1016 30 48 N/A
11:50 am 11:50 Mostly Cloudy 50 10 46 8 88 88 W 7 11 30.03 1017 30 48 N/A
12:20 pm 12:20 Mostly Cloudy 52 11 46 8 82 82 W 8 13 30.03 1017 30 48 N/A
12:50 pm 12:50 Mostly Cloudy 52 11 45 7 77 77 W 8 13 30.03 1017 30 48 N/A
1:20 pm 13:20 Mostly Cloudy 52 11 45 7 77 77 W 8 13 30.03 1017 30 48 N/A
1:50 pm 13:50 Mostly Cloudy 52 11 45 7 77 77 W 8 13 30.03 1017 30 48 N/A
2:20 pm 14:20 Mostly Cloudy 52 11 46 8 82 82 WSW 7 11 30.03 1017 30 48 N/A
2:50 pm 14:50 Mostly Sunny 52 11 45 7 77 77 WSW 9 15 30.03 1017 7 11 N/A
3:20 pm 15:20 Partly Cloudy 52 11 45 7 77 77 W 8 13 30.06 1018 30 48 N/A
3:50 pm 15:50 Partly Cloudy 52 11 45 7 77 77 W 9 15 30.06 1018 30 48 N/A
4:20 pm 16:20 Partly Cloudy 52 11 45 7 77 77 WNW 7 11 30.06 1018 30 48 N/A
4:50 pm 16:50 Mostly Clear 50 10 45 7 82 82 WSW 5 7 30.09 1019 30 48 N/A
5:20 pm 17:20 Mostly Clear 48 9 43 6 82 82 WSW 6 9 30.09 1019 7 11 N/A
5:50 pm 17:50 Mostly Cloudy 48 9 43 6 82 82 WSW 7 11 30.09 1019 30 48 N/A
6:20 pm 18:20 Mostly Cloudy 48 9 45 7 87 87 WSW 7 11 30.12 1020 30 48 N/A
6:50 pm 18:50 Mostly Cloudy 48 9 45 7 87 87 WSW 7 11 30.12 1020 30 48 N/A
7:20 pm 19:20 Mostly Cloudy with Light Rain 48 9 46 8 94 94 WSW 9 15 30.12 1020 30 48 N/A
7:50 pm 19:50 Mostly Clear 48 9 45 7 87 87 WSW 8 13 30.12 1020 30 48 N/A
8:20 pm 20:20 Mostly Clear 48 9 45 7 87 87 WSW 9 15 30.12 1020 30 48 N/A
8:50 pm 20:50 Partly Cloudy 48 9 45 7 87 87 WSW 8 13 30.12 1020 30 48 N/A
9:20 pm 21:20 Partly Cloudy 48 9 45 7 87 87 WSW 8 13 30.12 1020 30 48 N/A
9:50 pm 21:50 Mostly Cloudy 48 9 45 7 87 87 WSW 9 15 30.15 1021 30 48 N/A
10:20 pm 22:20 Cloudy 48 9 45 7 87 87 WSW 10 17 30.15 1021 30 48 N/A
10:50 pm 22:50 Cloudy 48 9 45 7 87 87 WSW 12 19 30.15 1021 30 48 N/A
11:20 pm 23:20 Mostly Cloudy 48 9 46 8 94 94 WSW 9 15 30.15 1021 30 48 N/A
11:50 pm 23:50 Cloudy 48 9 46 8 94 94 WSW 9 15 30.15 1021 3 4 N/A

Powered by AerisWeather